FW2140 Weather Reports


time (UTC)temp
C
wind
direction
speed
KPH
gust
KPH
rain 1hr
cm
rain 24hr
cm
rain mn
cm
humidity
%
barometer
mb
20260505041404 13 220 1.6 4.8 0.00 0.00 0.00 66 1010.4
20260505040404 13 226 1.6 4.8 0.00 0.00 0.00 65 1010.5
20260505035405 13 220 1.6 8.0 0.00 0.00 0.00 64 1010.4
20260505033404 14 207 1.6 4.8 0.00 0.00 0.00 62 1010.2
20260505032404 14 207 0.0 8.0 0.00 0.00 0.00 61 1010.3
20260505031404 14 227 1.6 8.0 0.00 0.00 0.00 61 1010.6
20260505030404 14 249 1.6 4.8 0.00 0.00 0.00 60 1010.4
20260505025404 14 96 1.6 9.7 0.00 0.00 0.00 59 1010.3
20260505023404 15 229 3.2 8.0 0.00 0.00 0.00 57 1010.6
20260505022404 15 233 1.6 8.0 0.00 0.00 0.00 56 1010.4
20260505021404 15 243 3.2 9.7 0.00 0.00 0.00 55 1010.5
20260505015403 15 266 1.6 9.7 0.00 0.00 0.00 53 1010.5
20260505014404 15 212 3.2 9.7 0.00 0.00 0.00 52 1010.4
20260505013404 16 214 1.6 9.7 0.00 0.00 0.00 51 1010.0
20260505012404 16 258 3.2 9.7 0.00 0.00 0.00 50 1010.1
20260505011404 16 197 3.2 9.7 0.00 0.00 0.00 49 1009.8
20260505010404 16 121 1.6 9.7 0.00 0.00 0.00 49 1009.9
20260505005404 16 266 1.6 8.0 0.00 0.00 0.00 49 1009.7
20260505002404 17 142 3.2 11.3 0.00 0.00 0.00 47 1008.8
20260505000405 17 265 4.8 9.7 0.00 0.00 0.00 46 1008.3
20260504235404 18 209 1.6 9.7 0.00 0.00 0.00 45 1008.1
20260504234404 18 225 1.6 9.7 0.00 0.00 0.00 44 1008.1
20260504232404 18 246 4.8 12.9 0.00 0.00 0.00 43 1007.7
20260504231404 19 47 3.2 11.3 0.00 0.00 0.00 43 1007.3
20260504230404 20 211 3.2 9.7 0.00 0.00 0.00 42 1007.1
20260504224403 21 254 1.6 14.5 0.00 0.00 0.00 37 1006.8
20260504222404 21 144 1.6 4.8 0.00 0.00 0.00 35 1006.7
20260504221404 22 274 0.0 9.7 0.00 0.00 0.00 32 1006.5
20260504215404 23 5 3.2 11.3 0.00 0.00 0.00 30 1006.6
20260504214403 22 239 4.8 11.3 0.00 0.00 0.00 30 1006.7
20260504213404 23 259 4.8 11.3 0.00 0.00 0.00 29 1006.6
20260504211404 23 248 1.6 9.7 0.00 0.00 0.00 29 1006.5
20260504210404 23 257 3.2 14.5 0.00 0.00 0.00 29 1006.5
20260504202403 23 245 3.2 16.1 0.00 0.00 0.00 27 1006.9
20260504200404 23 302 4.8 14.5 0.00 0.00 0.00 27 1006.7
20260504195403 23 218 3.2 14.5 0.00 0.00 0.00 26 1007.0
20260504194404 23 261 3.2 9.7 0.00 0.00 0.00 27 1006.8
20260504193404 22 119 4.8 11.3 0.00 0.00 0.00 27 1006.9
20260504192404 22 251 6.4 11.3 0.00 0.00 0.00 26 1007.0
20260504190404 22 241 3.2 16.1 0.00 0.00 0.00 26 1006.9
20260504185404 22 270 6.4 12.9 0.00 0.00 0.00 27 1006.8
20260504184404 22 261 4.8 11.3 0.00 0.00 0.00 26 1007.0
20260504183404 22 260 3.2 9.7 0.00 0.00 0.00 27 1007.0
20260504182404 22 261 3.2 16.1 0.00 0.00 0.00 27 1007.1
20260504181404 22 270 11.3 16.1 0.00 0.00 0.00 28 1007.3
20260504180404 22 277 3.2 12.9 0.00 0.00 0.00 29 1007.3
20260504175404 22 150 4.8 14.5 0.00 0.00 0.00 28 1007.2
20260504173404 21 292 6.4 12.9 0.00 0.00 0.00 28 1007.5
20260504172404 22 67 3.2 14.5 0.00 0.00 0.00 29 1007.3
20260504171403 21 222 3.2 12.9 0.00 0.00 0.00 30 1007.5
20260504170405 21 282 8.0 14.5 0.00 0.00 0.00 30 1007.5
20260504160405 20 285 8.0 12.9 0.00 0.00 0.00 31 1008.2
20260504150404 19 236 3.2 14.5 0.00 0.00 0.00 34 1008.5
20260504140405 18 261 3.2 9.7 0.00 0.00 0.00 37 1009.1
20260504130404 15 266 3.2 8.0 0.00 0.00 0.00 43 1010.0
20260504110404 10 196 1.6 4.8 0.00 0.00 0.00 53 1010.4
20260504100404 8 272 0.0 3.2 0.00 0.00 0.00 55 1010.0
20260504081404 8 261 0.0 0.0 0.00 0.00 0.00 54 1010.0
20260504080404 8 221 0.0 0.0 0.00 0.00 0.00 54 1010.1
20260504050403 6 218 0.0 0.0 0.00 0.00 0.00 58 1009.9